Theta_e
348 350 350 352 348 350 351 352 357 357 361 357 359 359 356 360 362 365 367 366 363 358 356 353 351 353 354 356 357 355 356 361 358 352 352 358 355 353 354 354 355 355 354 355 354 352 350 349 351 353 352 354 353 355 356 355 355 355 351 343 345 351 351 352 352 351 350 350 351 351 352 352 352 353 353 353 352 353 353 353 354 353 354 353 353 353 354 353 353 353 353 353 352 351 349 347 346
351 352 352 353 349 354 354 355 360 354 352 351 356 358 355 366 368 365 366 367 363 353 352 350 349 352 350 352 352 352 354 353 356 355 355 356 353 353 355 355 355 355 355 355 354 354 353 350 349 351 350 352 354 355 355 354 355 353 348 342 347 351 351 351 350 350 350 350 350 350 351 351 352 352 353 353 353 353 354 353 353 353 353 354 353 353 353 353 353 353 353 353 352 351 350 348 346
353 353 353 353 351 354 358 359 358 348 346 344 346 359 363 366 366 362 364 365 356 349 351 350 350 352 351 353 352 354 354 350 352 352 352 355 356 353 353 355 356 355 354 355 355 355 355 350 348 349 349 352 355 354 355 354 352 349 344 343 350 351 350 350 350 350 351 350 350 350 350 350 351 351 352 353 353 354 353 354 354 353 353 353 353 353 353 353 353 353 353 353 353 352 351 349 348
354 354 354 354 353 356 362 364 364 354 346 335 334 357 362 360 362 360 359 357 351 350 351 350 354 353 352 354 352 354 353 349 351 352 352 355 358 355 353 353 355 355 354 355 356 357 355 350 348 348 350 353 355 355 355 353 348 342 342 347 351 350 350 351 350 351 350 350 350 350 351 351 352 352 352 353 353 352 353 353 353 353 353 353 353 353 353 353 352 352 353 352 352 353 352 351 350
355 356 354 355 359 362 365 364 368 358 348 335 334 352 357 355 357 356 355 353 352 352 351 352 355 353 353 354 352 354 353 349 350 352 353 355 356 355 354 353 354 355 354 356 355 357 355 348 348 347 351 353 355 356 355 351 343 339 344 350 351 350 351 351 350 350 350 351 351 351 351 352 352 353 352 352 353 352 353 353 352 353 353 353 353 354 353 353 353 352 352 352 353 353 352 352 352
355 358 356 357 360 360 363 358 356 350 349 347 343 350 355 353 357 356 356 354 351 351 351 354 353 354 355 354 352 352 353 350 349 352 354 355 356 354 355 355 354 353 354 356 356 357 354 348 347 348 352 354 354 356 355 348 340 340 347 351 350 351 352 351 351 350 351 352 352 351 350 351 351 351 351 351 352 352 352 353 353 353 354 353 353 353 353 352 352 352 352 353 353 353 353 352 352
356 358 357 358 361 361 363 356 352 342 344 354 349 352 353 352 355 355 356 355 354 353 351 353 352 354 355 354 353 352 352 351 350 351 353 356 355 356 355 353 354 352 353 356 356 357 352 348 349 350 353 354 355 355 352 345 339 343 348 350 350 351 352 351 350 351 351 351 350 350 350 350 350 350 349 350 351 351 352 352 352 352 353 353 353 352 352 352 352 353 352 352 352 352 352 352 352
357 359 358 362 365 363 363 357 354 343 346 354 349 353 351 352 355 355 357 356 355 354 352 353 351 356 358 355 354 354 351 351 350 353 354 355 355 354 354 352 354 353 352 355 357 356 350 349 351 351 352 354 356 353 348 343 338 343 348 349 350 351 351 350 350 351 351 350 351 350 350 350 350 349 348 348 349 351 351 351 351 352 352 352 352 351 351 352 352 352 352 352 352 352 351 350 351
358 360 361 363 365 359 355 352 347 347 353 350 350 352 352 353 352 354 355 354 355 353 354 352 351 359 360 357 356 353 352 352 351 352 354 354 354 353 354 353 353 354 352 353 356 355 352 352 352 351 354 355 353 350 345 342 339 343 347 349 350 350 350 350 350 351 351 350 350 349 349 348 349 348 348 348 349 349 350 350 351 352 352 351 351 351 351 350 350 350 350 351 352 352 351 350 350
358 359 363 363 360 347 336 335 340 351 355 350 351 351 352 352 351 352 352 352 355 353 355 351 353 359 359 358 356 352 351 352 350 353 355 353 353 353 354 354 353 354 354 353 354 355 354 353 352 352 354 354 351 348 344 343 340 342 347 349 350 350 349 349 350 350 350 350 349 349 348 348 348 349 349 350 350 350 350 351 351 352 352 352 352 351 351 350 350 350 350 349 350 351 350 350 349
361 360 361 361 354 338 325 327 340 349 352 351 351 350 350 352 351 352 350 352 352 353 352 352 356 356 357 358 356 353 353 352 350 353 354 352 352 353 353 353 354 354 355 354 353 355 355 354 353 353 354 352 349 346 344 342 341 342 345 348 349 349 349 348 349 349 349 349 349 348 347 347 347 348 349 349 349 349 349 350 351 352 352 352 352 351 351 352 352 351 350 349 349 350 349 349 349
361 362 364 362 353 343 331 330 339 346 352 351 352 352 350 351 351 351 350 352 352 352 353 356 357 354 358 359 355 353 352 352 350 352 354 353 352 352 353 353 354 355 355 354 354 355 356 355 354 353 352 350 348 345 343 341 341 342 344 346 348 348 348 347 348 348 349 349 348 348 346 345 346 347 348 347 348 349 350 351 352 352 352 352 352 352 352 352 352 352 350 349 350 349 348 348 348
358 361 363 359 355 352 339 333 339 345 349 349 352 351 350 352 351 350 351 352 352 351 354 357 355 356 359 359 355 351 351 352 351 350 353 354 352 352 352 352 353 355 354 354 355 355 355 355 354 354 350 347 346 343 342 342 343 343 343 345 347 348 348 346 347 347 348 348 348 347 345 345 345 344 346 347 347 349 350 350 350 351 352 353 353 352 352 352 353 352 350 349 351 350 348 347 348
355 360 360 357 359 355 340 335 339 340 342 349 351 350 352 352 350 350 350 351 352 351 352 353 353 357 359 358 355 350 351 352 351 350 351 352 352 352 352 352 353 354 354 352 354 354 355 354 354 354 350 349 347 344 345 345 345 345 345 346 347 348 347 346 347 347 347 347 346 346 345 345 344 344 345 345 347 347 347 348 349 352 352 353 353 352 353 352 352 352 350 349 349 349 348 347 348
354 355 357 361 356 350 343 338 339 338 340 347 348 349 351 349 350 351 351 352 352 349 350 351 353 356 356 358 356 350 352 351 351 351 350 352 352 351 351 351 352 354 354 353 353 352 353 352 354 353 352 353 351 350 350 348 348 348 348 348 347 346 345 345 346 346 346 346 345 344 345 345 343 343 343 346 346 345 348 350 349 352 353 352 353 352 351 350 350 349 349 349 348 347 347 347 348
352 352 356 359 347 341 344 340 343 341 342 347 347 348 349 348 350 349 351 351 349 349 349 350 351 353 352 353 353 350 352 350 351 351 350 351 352 352 352 352 352 353 354 354 353 352 353 353 354 354 353 354 353 354 354 351 350 349 349 348 347 345 345 346 344 344 346 345 345 344 345 348 349 347 345 348 348 346 350 351 350 352 352 352 352 350 348 348 349 347 347 348 348 346 345 345 346
350 351 352 348 344 342 344 347 345 343 345 347 347 347 348 348 348 347 349 349 348 350 348 349 349 350 350 351 352 351 352 350 351 351 351 352 352 352 352 353 353 353 354 355 356 354 355 355 356 354 354 354 353 353 354 354 350 349 349 347 347 345 345 345 343 344 345 346 345 343 347 354 356 353 351 353 352 351 349 347 349 351 350 352 350 347 347 347 348 347 346 347 347 348 348 346 345
351 355 348 342 349 351 348 351 347 346 348 347 347 348 349 348 349 346 347 350 349 350 350 348 349 351 351 351 351 351 351 350 350 351 353 353 353 353 352 354 354 353 355 356 357 357 357 358 358 357 356 354 352 353 354 355 350 350 351 348 347 346 345 344 345 348 351 352 348 348 353 355 357 355 355 356 355 356 350 346 348 349 348 350 348 347 347 346 346 345 345 346 349 352 353 351 349
351 353 347 342 354 357 351 352 347 345 348 346 348 347 348 348 349 347 349 351 349 351 352 349 350 353 351 352 352 351 350 350 350 350 353 353 355 353 353 355 354 354 354 356 358 359 358 358 358 357 357 356 353 354 355 355 352 352 354 352 350 350 348 348 351 355 356 357 354 354 357 356 357 356 356 356 354 355 351 346 347 348 348 348 349 352 350 348 346 345 347 350 352 354 353 353 352
350 349 348 347 356 358 351 347 347 346 346 347 349 347 349 349 347 348 350 350 350 351 351 351 353 352 350 350 350 352 351 351 350 351 352 353 355 354 354 355 354 355 353 354 356 357 359 359 359 356 357 357 355 355 355 355 353 353 355 354 353 353 352 353 356 357 359 361 358 357 358 357 358 357 354 351 351 354 352 348 348 351 352 350 352 355 353 353 352 349 352 354 353 354 353 352 351
348 346 347 350 356 355 351 347 346 346 345 346 348 346 350 351 348 348 350 351 351 350 350 350 353 352 350 348 350 352 352 351 350 351 352 352 354 353 354 355 354 354 354 354 353 356 358 359 360 359 358 358 355 356 355 355 354 351 353 354 353 354 354 354 356 358 361 362 360 358 358 357 356 356 354 349 351 354 354 353 353 354 355 353 353 354 353 354 354 352 353 353 352 353 353 353 351
347 347 345 348 352 352 353 348 347 346 343 348 348 348 349 350 348 348 349 352 350 348 348 348 351 351 350 349 349 351 350 349 351 352 351 352 353 353 355 355 353 354 354 354 353 355 358 358 358 359 360 359 356 355 355 355 354 352 353 354 353 353 354 354 356 357 359 360 359 357 357 356 354 355 354 353 354 354 353 354 353 354 354 353 353 354 354 354 353 352 354 353 353 352 352 353 353
345 345 346 345 346 354 353 347 347 346 344 347 347 347 348 347 347 346 348 350 348 345 347 348 351 351 351 350 349 349 349 348 350 352 352 351 352 352 354 353 354 354 354 354 354 354 356 357 357 357 358 360 359 354 353 356 355 353 354 354 354 354 354 355 356 357 358 359 357 356 355 354 353 354 355 354 356 355 354 354 354 354 353 353 354 353 353 354 353 353 354 354 352 352 353 353 354
345 344 344 345 345 352 354 350 348 345 346 347 344 346 345 345 345 344 345 347 346 345 346 347 349 351 351 351 350 349 349 349 350 352 351 351 351 352 352 352 353 354 354 355 354 354 354 355 355 356 357 358 358 356 355 358 358 355 355 355 355 355 354 355 356 356 358 358 357 355 354 353 353 354 354 354 354 354 355 355 355 355 353 353 353 353 353 353 354 353 354 354 353 353 353 353 353
346 344 342 344 345 350 353 351 349 347 348 345 344 344 344 344 344 344 346 344 345 346 346 348 350 351 351 350 350 351 350 350 351 351 351 350 351 351 352 352 353 354 355 355 354 355 355 354 355 355 357 357 357 357 356 356 356 357 357 356 356 355 355 355 355 357 357 357 356 355 354 353 353 353 354 354 355 355 355 355 355 353 354 354 353 354 354 354 354 353 354 354 353 354 354 354 353
345 344 341 341 345 347 348 349 350 348 347 345 345 344 343 343 343 344 345 344 345 346 346 349 350 350 351 350 350 351 351 350 351 351 351 351 351 351 351 351 352 353 354 355 355 355 355 355 356 354 355 357 356 356 355 353 354 356 357 357 356 355 355 356 355 356 356 355 355 355 354 354 354 353 354 355 355 356 357 356 355 353 354 353 353 355 354 354 354 354 355 354 355 355 354 354 354
344 344 344 342 344 345 346 347 348 347 346 345 344 343 341 341 342 343 342 344 345 346 348 350 350 351 351 350 350 351 350 350 352 351 351 351 351 351 351 352 351 353 352 353 355 354 355 355 356 355 354 356 356 355 354 353 354 354 357 357 356 356 355 356 356 355 355 354 354 355 355 355 356 354 355 356 356 357 357 356 355 354 354 354 354 354 354 355 355 356 357 356 356 356 355 356 352
343 342 342 343 343 343 343 345 346 345 346 342 342 343 341 341 342 342 342 342 346 346 349 351 351 351 350 350 350 351 351 352 352 351 351 351 352 351 351 352 350 352 351 351 353 354 355 355 355 356 354 356 356 355 354 354 355 355 356 357 355 356 355 356 355 354 355 353 354 356 357 356 355 356 358 358 357 357 356 356 356 355 355 354 355 357 357 356 356 357 358 358 357 356 356 354 349
343 340 341 342 342 340 339 342 344 344 344 342 341 338 338 341 340 341 342 343 346 347 350 352 352 352 351 351 351 352 352 354 352 351 353 352 351 351 351 352 352 351 351 350 352 353 355 354 355 355 355 356 357 355 355 355 355 356 356 356 356 356 356 356 355 355 354 354 355 357 357 357 356 357 359 358 357 357 357 357 357 356 356 356 357 359 359 358 356 356 358 358 356 356 354 351 347
340 340 340 339 335 336 337 339 341 344 342 340 339 328 330 341 339 338 343 343 347 348 351 353 351 352 351 352 351 352 353 353 354 353 353 352 352 351 350 351 351 350 351 350 352 352 354 353 354 355 355 357 357 355 355 355 355 355 356 356 356 356 356 356 355 354 354 354 356 358 358 358 357 356 358 358 356 357 358 358 358 357 358 358 359 360 359 358 357 357 357 356 355 355 351 346 345
340 338 336 335 325 327 336 337 338 343 339 340 339 323 327 339 340 340 343 344 346 348 351 351 351 352 350 352 353 353 353 352 355 354 352 353 352 351 351 350 350 349 350 350 352 352 352 353 353 355 355 356 357 356 355 356 355 355 355 356 355 356 356 355 355 354 354 354 355 357 358 358 358 356 356 357 357 357 357 358 358 358 360 359 358 361 359 357 357 357 356 356 356 352 347 345 344
337 329 324 328 322 325 338 337 337 341 338 339 337 324 330 339 340 340 342 344 347 347 350 351 351 352 351 353 353 353 353 354 355 354 353 353 352 351 351 350 350 350 350 351 352 351 352 353 353 354 355 355 356 356 355 355 356 355 355 355 355 356 356 355 354 353 353 353 353 355 358 358 358 357 356 357 356 356 357 358 358 360 361 358 359 362 360 357 358 358 358 357 354 349 344 343 342
334 327 318 322 322 324 333 336 337 339 338 339 335 329 333 337 339 342 342 345 345 347 349 350 350 352 353 352 353 353 354 354 354 354 354 353 353 352 352 352 350 351 352 352 353 352 353 353 353 353 354 354 354 355 354 354 356 356 355 355 355 356 356 355 354 353 352 352 353 353 357 358 357 358 357 357 357 356 357 357 357 360 361 360 362 362 359 358 357 358 359 357 351 348 345 342 340
324 326 321 322 326 323 325 333 338 337 337 340 336 336 336 337 343 343 343 345 345 346 349 351 351 352 355 353 353 354 354 355 354 353 355 353 353 353 352 353 352 352 353 354 353 353 353 353 353 353 353 354 353 354 353 354 355 356 356 356 355 355 355 353 353 353 352 351 353 352 356 358 358 359 358 358 357 356 357 357 358 360 360 362 363 361 358 358 357 357 359 357 351 347 346 341 340
317 319 319 320 325 325 325 330 335 337 337 338 336 336 338 338 342 344 342 342 342 344 348 350 353 353 356 355 353 354 355 356 355 355 355 354 354 353 353 353 352 353 354 355 355 355 355 354 354 353 353 353 353 353 354 354 355 356 357 355 354 355 354 353 351 352 352 351 352 352 356 359 358 358 358 358 358 356 356 356 359 361 361 363 363 360 358 358 359 357 357 358 353 348 346 342 341
323 324 323 319 321 323 329 334 335 337 336 337 337 334 338 338 340 343 342 339 339 342 346 349 352 354 356 355 352 353 355 355 355 356 355 355 354 354 354 354 353 353 354 356 356 356 357 355 355 354 353 353 352 353 354 354 355 355 356 355 354 354 353 353 351 351 352 351 352 353 357 359 359 358 358 357 357 356 357 357 360 362 361 362 363 361 358 358 361 360 358 357 353 350 345 342 342
329 328 325 324 321 322 333 336 335 336 333 335 338 335 337 338 337 340 340 340 340 340 344 347 350 354 356 356 353 353 354 354 354 355 356 355 355 355 355 355 355 355 355 357 356 357 357 356 356 356 355 353 352 353 354 353 353 355 355 354 352 353 353 354 354 352 352 350 350 353 357 359 358 358 358 357 357 357 358 360 362 363 361 360 363 363 361 361 362 362 360 355 352 350 345 341 340
328 326 323 321 322 324 333 336 335 335 332 331 337 336 335 337 337 337 339 340 341 341 341 344 348 350 354 355 354 353 353 353 353 355 355 356 356 356 357 356 356 356 356 357 357 358 358 358 357 357 356 354 353 353 354 353 353 354 354 353 351 352 353 353 355 355 352 350 351 354 357 359 359 358 358 357 357 359 362 362 363 366 362 360 363 364 363 363 363 362 359 354 352 350 345 343 340
327 326 322 317 322 326 331 336 337 335 331 330 336 334 334 337 337 336 338 339 342 343 341 343 345 349 352 353 354 355 353 354 353 353 356 357 357 356 356 358 357 358 358 358 358 358 358 358 358 358 357 356 355 353 354 354 354 354 354 353 352 352 354 354 354 355 353 351 352 355 358 359 359 359 358 357 358 362 366 365 364 365 363 360 363 364 364 364 365 365 359 353 352 348 344 343 340
327 324 318 315 322 323 320 327 337 336 332 332 335 333 333 337 336 336 336 335 339 342 343 343 344 347 352 351 354 354 352 354 354 352 354 355 355 357 358 359 358 358 359 359 359 359 358 358 359 359 359 357 356 354 355 355 355 355 354 354 354 354 354 355 356 356 355 353 352 357 360 360 360 359 358 357 357 362 366 366 363 362 364 364 365 366 365 363 364 364 358 353 351 346 344 343 340
325 326 320 317 322 324 321 328 335 333 333 336 333 325 326 335 335 335 336 336 337 338 342 344 341 348 351 351 355 353 351 353 353 353 355 354 355 358 358 360 360 359 360 359 359 360 358 358 358 359 359 358 358 356 356 356 357 356 356 355 356 355 354 355 356 355 355 354 351 356 361 361 359 357 357 357 358 361 364 366 365 364 366 368 366 365 364 361 360 359 355 354 352 346 345 345 342
319 324 325 322 325 327 326 330 327 321 320 330 331 316 318 332 334 335 336 336 337 336 343 344 342 345 350 353 354 350 349 352 354 356 356 355 356 359 359 360 359 359 360 360 360 359 359 359 359 360 360 359 359 357 357 358 358 357 356 357 356 357 356 357 358 356 354 355 353 354 358 360 359 356 357 357 358 361 362 364 365 365 366 369 366 363 363 362 361 358 355 355 352 347 346 347 345
314 321 326 326 327 326 324 325 321 313 314 329 333 318 315 323 329 337 337 337 338 338 340 344 344 344 348 352 352 349 350 352 354 355 356 357 357 359 361 361 360 360 360 359 359 360 359 359 360 360 360 360 360 359 359 359 359 358 357 357 357 358 359 359 360 358 355 356 354 352 355 358 359 357 357 358 359 360 361 363 365 364 364 367 367 364 363 362 361 359 356 354 352 348 347 347 345
315 324 326 325 325 323 323 322 317 316 319 327 330 324 315 315 325 338 339 335 337 338 338 342 345 345 346 350 350 351 351 350 350 352 355 357 357 359 361 362 361 359 360 359 360 360 361 361 361 362 361 361 360 360 360 360 360 360 359 358 358 359 359 359 361 360 356 355 355 352 352 355 359 359 357 358 359 360 360 362 364 364 363 363 364 364 362 361 360 359 356 355 353 350 349 348 346
321 326 325 325 325 322 323 320 316 318 318 315 320 322 316 312 323 338 339 335 336 337 341 346 347 345 346 348 351 353 351 351 353 354 357 359 359 361 362 362 361 359 360 360 360 360 361 362 362 362 362 361 362 361 362 361 361 360 361 360 360 360 360 359 359 360 358 355 355 356 353 355 359 362 360 358 360 361 361 361 362 363 362 362 362 361 361 362 361 360 357 357 356 352 350 349 347
325 325 324 324 326 325 323 320 316 315 314 310 314 317 313 312 318 329 332 330 333 338 342 346 348 346 347 348 349 354 354 356 355 356 359 360 360 362 361 363 361 359 360 360 360 361 361 363 363 363 363 363 363 362 362 362 361 362 361 361 361 361 360 359 358 359 359 357 358 358 357 357 359 362 362 360 360 361 362 362 361 361 361 360 361 360 360 361 361 360 359 358 356 353 351 350 349
325 324 324 322 324 326 324 321 316 312 311 312 313 315 314 311 314 323 328 330 334 340 342 344 348 347 349 348 348 353 356 357 357 358 360 360 361 362 361 363 362 360 361 361 361 363 363 365 365 365 365 364 364 364 364 363 361 362 362 362 362 361 359 359 358 359 361 361 360 361 361 360 360 361 361 361 361 361 362 362 360 360 359 359 359 361 361 360 360 360 360 358 358 355 352 350 350
325 325 322 318 318 319 317 316 314 311 310 312 314 316 313 309 314 324 333 335 335 338 339 343 347 347 348 349 347 349 356 358 358 360 361 361 361 362 362 363 363 362 361 362 362 363 364 365 366 367 367 366 365 365 364 363 362 361 362 363 362 361 360 359 359 360 362 364 363 362 362 361 361 360 360 360 360 360 361 363 362 359 359 358 359 360 360 360 359 360 359 359 359 357 354 352 350
325 322 317 312 311 313 312 311 311 311 310 313 315 316 312 310 318 329 333 334 334 336 338 341 344 347 348 349 348 348 354 357 356 359 360 362 362 362 363 365 364 363 361 362 362 362 364 365 367 368 367 366 365 365 366 363 363 362 363 363 363 362 362 360 359 359 362 365 365 364 363 362 362 361 360 359 359 359 360 362 362 360 359 359 360 361 361 361 360 360 359 359 359 357 356 353 351
322 318 313 311 311 312 312 312 311 311 310 312 316 315 311 311 319 330 333 331 333 334 335 338 340 345 349 351 348 347 352 356 357 359 360 362 364 361 363 365 365 364 362 363 362 362 365 366 367 368 368 368 366 366 366 364 364 363 362 363 363 363 363 361 359 359 360 364 365 366 363 361 361 361 360 360 358 359 360 362 363 363 361 361 362 362 362 362 363 361 359 359 359 359 357 354 353
322 323 319 313 311 312 312 311 310 311 310 311 314 314 310 309 319 329 331 330 334 334 334 337 338 342 348 350 349 346 349 354 356 359 359 361 364 363 365 365 365 365 363 363 363 364 366 366 368 369 368 369 368 366 367 366 365 364 362 363 364 363 363 361 360 358 358 361 364 365 363 361 359 360 360 360 359 359 360 361 364 365 364 362 363 363 363 363 364 363 361 360 359 358 357 356 354
323 326 321 313 315 315 312 311 311 311 310 310 311 312 314 318 326 333 331 331 332 331 334 336 336 339 346 350 349 346 346 351 355 358 360 361 363 366 366 365 365 367 365 364 364 365 366 367 369 370 369 370 369 368 367 366 365 364 363 364 363 363 363 362 361 360 359 360 361 363 364 362 359 359 360 361 360 360 360 362 364 366 365 364 364 364 363 362 364 364 363 361 360 359 358 357 354
322 320 315 318 324 321 312 311 313 312 311 312 310 311 315 320 325 330 331 331 330 332 332 333 337 338 342 349 349 346 345 347 352 359 360 361 363 365 366 366 365 367 366 366 365 365 366 367 369 371 371 371 370 368 368 366 366 365 365 365 364 364 363 362 360 360 360 359 361 362 363 364 362 359 359 361 363 363 362 362 363 365 366 364 364 364 363 361 362 364 364 363 362 360 358 358 356
322 315 316 323 324 322 317 312 313 313 312 312 310 310 312 312 316 326 332 330 329 330 332 332 337 337 340 345 347 345 344 346 352 358 360 360 361 364 366 366 366 367 367 367 366 366 366 368 370 370 370 371 370 368 366 366 366 365 366 366 364 364 364 362 360 361 360 360 361 362 363 364 363 361 359 359 363 365 364 364 364 365 365 364 363 363 363 361 361 363 364 363 363 360 359 358 358
324 320 323 323 315 313 314 312 312 312 312 312 310 311 312 310 314 323 329 329 330 331 332 332 333 335 336 339 342 345 344 344 350 356 360 362 361 363 366 366 365 367 368 368 367 367 367 368 369 370 370 371 370 368 367 366 366 365 365 366 365 364 364 363 361 361 362 362 361 362 362 363 363 362 361 360 362 365 366 366 366 366 365 364 364 364 364 364 363 362 362 363 363 362 360 359 359
326 325 326 324 316 313 313 313 313 311 311 312 311 310 310 315 322 326 329 332 330 330 332 333 332 334 333 334 337 341 344 345 348 352 358 360 359 361 366 366 365 366 367 367 368 367 367 369 368 369 370 370 369 368 367 368 367 365 365 366 365 365 364 364 363 362 363 363 362 362 363 363 362 363 363 363 363 364 365 366 367 366 364 365 365 363 363 364 364 363 361 361 361 362 361 360 359
320 318 319 318 318 318 317 314 313 311 311 312 312 311 310 320 330 331 331 333 331 331 333 332 332 332 334 336 336 341 345 347 347 349 354 360 360 361 363 365 364 365 367 366 367 367 367 367 368 369 369 369 369 369 368 369 368 365 365 366 365 366 366 365 365 363 363 363 363 363 362 362 362 362 363 364 364 364 365 366 367 366 364 364 365 364 363 364 365 364 362 360 360 362 362 361 360
321 318 318 317 317 315 313 313 312 312 310 311 312 310 311 323 332 332 332 332 331 332 332 331 332 331 333 335 336 341 346 347 346 349 350 356 360 359 361 364 364 363 367 367 367 367 366 367 368 368 368 368 368 368 368 369 368 365 366 366 365 366 367 366 366 365 364 363 364 364 363 363 363 364 364 364 365 366 365 366 367 366 366 364 364 366 365 365 366 366 363 360 360 361 362 361 360
Wind_Speed
17 16 16 15 13 11 7 6 2 3 4 2 3 2 4 5 4 5 4 7 6 6 7 7 9 8 6 10 12 11 11 7 4 4 6 12 24 26 23 24 25 24 24 24 23 23 21 20 20 21 21 21 20 19 20 20 20 19 20 21 20 18 18 18 17 17 17 16 16 16 16 16 15 15 15 15 15 14 14 14 14 14 13 13 13 12 12 12 11 12 12 11 11 11 11 11 10
17 16 16 14 13 9 4 4 2 2 4 2 5 4 5 6 4 6 6 5 4 8 9 9 9 10 11 12 13 13 13 11 12 10 11 24 28 24 25 25 25 25 24 24 23 22 21 21 20 20 21 21 20 20 20 20 19 18 20 21 19 18 18 18 17 17 17 16 16 16 16 15 15 15 14 14 15 14 14 14 14 13 13 13 12 12 12 11 11 11 12 12 11 11 11 11 10
17 17 17 14 10 6 1 3 3 2 3 1 4 4 6 8 8 9 10 8 8 12 10 10 9 8 8 11 12 11 11 13 18 15 14 26 23 22 29 26 25 25 24 24 23 22 21 21 21 19 21 21 21 21 20 19 18 18 21 20 18 18 18 18 17 17 16 16 16 16 15 15 14 14 14 14 14 14 14 13 13 13 13 13 12 12 12 11 11 11 12 11 11 11 10 11 10
17 18 19 14 6 4 1 2 3 2 3 1 5 8 7 8 11 8 11 11 11 12 9 10 9 7 7 12 12 11 13 12 17 16 14 20 20 24 30 28 26 24 24 23 22 22 22 23 22 21 21 22 21 20 20 18 18 19 21 20 18 18 18 17 17 16 16 15 15 15 15 14 14 14 14 14 14 14 13 13 13 13 13 13 12 12 12 11 11 11 11 11 11 11 10 10 10
15 16 18 11 3 2 2 3 2 3 1 3 5 8 9 9 12 11 11 11 10 10 9 8 8 9 10 12 8 8 11 12 16 17 16 20 25 27 27 27 26 24 24 22 23 22 23 25 23 23 22 21 21 19 19 18 19 21 20 19 18 18 17 17 16 16 15 15 15 14 14 14 14 14 14 14 14 13 13 13 13 12 12 13 12 12 12 11 11 11 11 11 11 10 10 10 9
13 11 11 8 1 1 2 4 4 2 2 5 6 8 11 10 11 13 12 11 10 10 8 7 9 12 10 11 9 8 10 11 14 17 20 24 28 28 26 26 24 26 27 23 23 23 24 25 23 24 23 22 20 19 18 18 20 21 20 18 18 17 16 16 16 15 14 14 14 14 13 13 13 13 13 13 13 13 12 12 12 12 12 12 11 12 12 11 11 11 11 10 10 10 10 10 9
12 7 3 6 1 2 4 5 5 1 5 7 8 10 11 11 11 12 12 10 10 9 8 9 11 12 8 8 9 11 12 14 14 18 24 27 29 28 26 25 24 26 28 23 22 24 26 25 24 24 23 22 20 19 18 18 20 20 19 18 17 16 16 15 15 14 14 13 13 13 13 12 13 13 12 12 12 12 11 11 12 12 12 12 12 12 12 11 11 11 11 10 10 9 9 9 9
13 6 3 5 3 3 4 6 4 3 6 9 10 11 11 11 11 11 11 9 8 7 9 12 10 10 9 9 9 9 14 16 17 23 27 28 29 27 24 25 24 25 27 25 24 25 27 25 24 23 22 21 19 19 18 18 20 20 18 18 17 16 15 15 14 14 13 13 12 12 12 12 12 12 12 12 11 11 11 11 11 11 11 11 12 11 11 11 11 11 11 11 10 9 9 9 8
12 7 3 4 4 4 4 4 4 6 7 11 11 10 10 10 10 9 10 9 9 8 10 12 9 10 10 11 10 8 12 18 23 27 27 27 28 26 22 24 24 24 26 27 27 26 26 24 24 23 21 20 19 19 18 18 19 18 18 17 16 15 15 14 13 13 12 12 12 12 11 11 11 11 11 11 11 10 10 10 10 11 11 11 11 11 11 11 11 11 11 11 10 9 9 9 8
8 6 3 3 4 5 3 2 4 7 8 10 11 10 9 8 8 8 9 10 10 10 12 11 9 12 11 12 9 7 14 21 26 27 25 28 27 24 23 23 24 24 24 27 28 26 25 24 24 23 21 20 20 19 18 18 18 17 17 17 15 15 14 13 13 12 12 12 11 11 11 11 10 10 10 10 10 9 9 9 10 10 10 10 10 10 10 10 11 10 10 10 10 9 9 9 8
5 4 3 3 4 5 0 5 4 6 9 10 11 10 8 8 7 7 9 10 10 10 13 11 9 12 12 11 7 9 18 22 26 26 25 27 25 23 24 23 24 23 23 25 26 25 26 24 23 22 21 20 20 19 18 18 17 16 16 16 15 14 13 12 12 12 11 11 11 10 10 10 10 10 9 9 9 9 9 9 9 9 10 10 10 10 10 10 9 10 10 10 9 9 9 8 8
5 3 2 2 4 5 2 4 5 7 9 9 10 9 8 7 7 9 8 10 10 10 13 9 8 12 10 9 7 11 21 22 24 27 26 25 24 23 23 23 23 23 24 25 24 25 25 24 23 22 21 20 20 19 18 18 17 16 16 16 15 14 13 12 11 11 11 10 10 9 9 9 9 9 8 8 8 8 8 8 9 9 9 9 9 9 9 9 8 8 8 9 9 8 8 8 7
6 3 1 2 6 6 1 3 5 6 7 8 9 8 7 6 7 8 8 10 8 9 14 10 10 12 10 8 9 12 18 22 24 28 26 23 23 23 22 23 23 23 24 24 24 24 24 24 23 21 21 21 20 19 19 18 17 16 16 15 14 13 12 12 11 10 10 10 9 9 8 8 8 8 8 7 7 7 7 7 8 8 8 8 8 8 8 8 7 7 7 8 8 7 7 7 7
6 4 2 4 6 6 1 4 5 4 6 8 8 8 6 6 8 7 7 10 7 8 12 12 12 12 10 9 8 10 16 23 26 27 27 23 22 23 22 22 23 23 24 24 24 24 24 22 22 22 22 20 20 19 18 18 17 16 15 15 14 13 12 11 11 10 10 9 9 8 8 7 8 7 7 6 6 6 6 6 6 6 7 7 7 7 7 7 6 6 6 7 6 7 7 7 7
7 5 4 4 4 4 3 3 5 4 7 9 8 7 6 8 8 7 7 8 9 10 10 11 11 8 11 11 8 11 19 26 27 26 26 24 23 22 22 22 23 23 23 24 24 24 23 22 21 22 21 20 20 19 18 17 17 16 15 14 14 13 12 11 10 10 9 9 8 8 7 7 7 6 6 5 5 5 6 5 4 5 6 6 6 6 6 6 6 5 5 6 6 6 6 6 6
6 6 4 3 2 2 5 1 5 4 6 9 9 7 7 9 6 6 8 7 10 9 7 9 7 4 11 13 12 19 26 28 27 26 25 24 23 22 22 21 21 22 22 23 23 22 22 22 22 21 21 21 20 18 18 18 17 16 15 14 13 13 12 11 10 9 9 8 8 7 7 6 5 5 5 4 4 4 5 4 3 4 5 4 4 5 5 5 5 5 5 5 5 6 7 7 6
5 6 5 3 1 1 5 4 4 3 6 9 9 6 7 9 6 6 7 7 10 8 6 8 5 3 9 15 21 27 29 29 28 26 25 24 22 21 21 21 21 20 20 22 22 22 21 22 22 21 21 21 20 19 19 18 17 16 15 14 13 13 12 11 10 9 9 8 7 7 6 6 5 5 4 5 3 2 2 3 3 3 3 3 4 5 5 5 5 5 5 5 6 6 7 7 7
5 5 7 3 2 1 5 2 3 4 7 8 7 6 7 9 7 6 6 8 9 8 8 9 7 6 11 20 28 30 29 30 29 27 25 23 21 21 20 20 21 20 20 21 21 21 21 21 21 21 21 21 20 19 19 18 18 17 15 14 13 12 12 11 10 10 9 8 7 7 6 5 6 5 4 5 4 3 1 1 2 2 3 3 4 6 6 6 5 6 6 6 7 5 5 5 5
6 5 8 2 4 8 10 4 1 3 6 6 7 6 5 7 7 5 6 9 9 8 9 9 10 11 15 23 28 30 30 29 29 28 25 23 21 21 21 20 21 20 21 20 20 21 20 20 21 21 22 21 20 19 18 19 19 18 15 15 13 12 12 11 10 10 9 9 8 8 7 5 6 5 5 5 4 4 2 1 2 2 3 3 5 6 6 6 6 7 7 6 6 4 2 2 3
7 7 7 2 6 11 7 2 2 4 2 3 7 6 4 6 7 4 4 9 8 7 9 9 12 14 17 22 26 30 29 28 28 28 26 23 22 22 21 21 21 21 22 21 22 22 20 20 21 22 21 21 21 19 18 19 19 18 16 15 14 13 13 12 11 10 9 9 8 8 6 6 7 6 6 6 5 5 2 1 2 2 3 4 4 3 5 5 4 5 4 3 3 2 2 0 2
7 8 6 5 4 3 3 1 3 2 1 1 5 6 5 5 5 5 4 7 6 6 9 10 13 16 18 21 23 27 27 26 27 26 26 24 22 22 21 21 21 21 21 21 24 24 21 21 21 21 20 21 21 19 18 19 19 18 17 16 14 14 13 12 11 10 10 9 9 8 7 7 7 6 6 6 5 4 2 2 2 2 1 3 2 2 3 2 0 3 3 1 2 2 0 1 2
8 9 8 9 3 3 4 2 4 1 2 2 6 5 6 7 6 5 4 3 3 5 10 11 14 18 20 21 22 24 24 24 25 25 26 25 23 22 20 21 21 21 21 20 23 25 24 21 21 22 21 20 20 19 19 18 18 18 17 16 15 14 13 12 11 11 10 10 9 8 7 7 6 6 6 6 5 3 2 3 3 3 1 1 3 0 2 0 2 1 2 2 2 2 2 3 2
8 9 8 10 6 4 4 7 2 1 3 2 4 3 5 6 6 6 5 3 3 5 10 13 15 18 20 21 21 22 23 23 24 25 26 26 25 23 22 22 22 22 21 21 22 25 25 23 23 23 23 22 20 20 20 17 18 17 16 16 15 14 13 12 11 11 10 10 10 8 7 7 6 6 6 6 5 5 4 4 3 3 1 1 3 1 1 1 0 1 1 1 2 2 2 3 2
11 10 9 9 7 6 4 8 5 4 3 1 0 1 4 5 4 5 6 6 4 7 9 13 16 18 19 21 21 22 23 23 24 26 27 26 26 24 23 23 22 22 21 21 22 23 25 25 25 24 25 25 22 20 19 18 18 16 15 15 14 13 13 12 11 10 10 10 10 8 8 6 6 6 6 6 5 5 4 3 3 2 2 0 1 1 1 0 0 1 0 0 1 2 2 3 3
14 13 10 8 7 7 11 11 7 6 6 4 4 4 6 6 3 4 7 8 8 8 9 14 17 18 19 20 22 21 21 22 24 25 26 25 25 25 23 22 22 22 22 22 22 23 24 25 25 25 25 25 23 20 18 19 20 17 15 15 14 13 12 12 11 10 10 10 10 9 8 6 6 6 5 5 5 4 3 3 3 2 2 1 0 1 1 1 1 0 1 1 1 2 3 3 3
12 15 13 10 8 8 10 10 8 11 8 5 8 8 8 7 5 6 7 9 10 10 10 15 17 18 18 19 20 20 21 21 22 24 25 24 25 25 23 23 23 22 22 22 22 22 23 24 24 24 24 23 22 21 19 19 20 18 15 15 14 13 12 11 10 11 10 10 10 10 9 7 6 5 6 5 5 4 4 4 4 3 2 2 1 1 0 1 2 1 1 2 2 2 3 3 3
8 12 14 13 11 9 10 10 12 13 10 9 9 8 9 8 7 6 8 10 11 12 12 15 17 17 17 17 18 19 20 21 23 24 23 23 24 24 24 22 22 23 23 23 22 22 23 24 24 24 24 23 21 20 19 18 18 17 15 14 14 13 12 11 11 11 10 10 10 10 10 8 6 5 4 5 5 5 5 5 4 3 2 2 2 1 0 1 2 1 1 2 2 2 3 3 3
9 9 10 13 13 11 12 12 13 11 10 11 10 10 10 9 9 7 8 13 13 13 14 16 16 16 17 17 18 16 16 21 24 23 22 22 22 23 23 22 22 22 23 24 22 21 23 24 24 24 23 22 21 20 19 18 17 16 15 14 14 13 13 12 11 11 10 10 9 10 10 9 8 4 2 4 5 4 5 5 4 3 2 2 2 2 1 1 2 1 1 2 2 2 3 2 2
12 11 9 12 13 14 15 14 14 12 10 11 11 10 10 10 11 8 9 13 14 14 15 16 16 15 16 17 16 15 16 20 22 21 22 23 22 23 23 23 23 22 22 23 22 22 23 24 24 24 23 22 22 20 19 18 17 16 16 15 14 13 13 12 11 11 10 10 9 10 10 9 9 6 4 5 5 4 4 4 4 3 2 2 2 2 1 2 1 1 1 2 2 2 3 2 2
13 13 10 11 12 13 16 15 15 15 12 12 11 7 8 12 13 11 10 14 14 14 14 15 15 14 15 16 15 15 17 19 20 22 24 24 23 24 24 24 24 22 21 23 23 23 23 24 23 23 23 23 22 20 19 18 17 16 16 15 14 14 13 13 12 11 10 10 10 10 10 10 10 8 6 6 6 5 5 4 4 4 3 2 2 2 2 2 1 1 1 2 2 2 2 2 2
11 12 10 10 9 10 15 16 16 16 13 14 12 7 7 9 13 13 11 14 14 14 15 14 14 15 14 15 16 16 17 18 22 24 25 25 24 24 25 24 24 23 22 23 24 24 23 23 23 23 24 23 21 20 19 18 17 16 16 15 14 14 13 13 12 12 11 11 11 11 11 11 10 9 8 7 7 6 5 5 5 4 3 3 3 2 2 2 1 1 1 2 2 2 1 1 2
10 11 10 11 10 10 13 17 18 17 13 15 14 8 7 6 12 14 11 12 14 13 15 15 14 15 15 14 16 16 16 19 23 25 26 26 25 24 24 25 24 23 22 23 24 24 23 23 23 23 24 24 22 21 20 18 17 16 16 15 15 14 13 13 13 12 12 12 12 12 12 12 11 10 9 8 7 6 6 5 5 3 3 3 3 2 2 2 1 0 1 1 2 2 2 1 2
10 11 11 12 13 11 10 14 18 18 14 15 15 10 6 6 11 14 10 10 13 12 14 16 14 14 15 12 13 14 16 18 20 23 27 27 25 24 24 25 25 24 22 23 24 25 24 24 23 23 24 25 23 22 21 19 17 16 15 15 14 14 14 13 13 13 12 13 12 12 12 13 11 11 10 9 8 7 6 5 4 4 3 3 2 2 3 2 1 0 0 1 1 1 3 2 2
10 10 11 12 14 13 11 11 16 18 16 15 15 12 9 8 13 14 11 10 12 12 14 16 15 13 13 10 10 12 15 18 18 21 27 28 26 26 25 25 25 24 23 24 25 25 24 24 23 23 24 24 23 23 22 20 18 16 15 14 14 14 14 14 13 13 13 13 13 12 13 13 12 11 11 10 9 8 7 5 4 4 4 3 2 3 3 2 1 0 0 1 0 2 3 3 3
13 12 11 12 13 14 14 12 14 18 17 15 15 13 12 11 13 14 14 13 10 11 13 14 15 14 14 11 10 10 13 17 18 22 28 28 27 27 26 26 26 25 24 24 25 25 24 23 23 22 23 24 23 22 22 20 18 16 15 14 14 14 14 14 14 14 14 13 13 13 13 13 12 12 11 10 9 8 7 6 5 4 4 3 3 3 3 2 2 1 0 1 1 1 2 3 3
15 15 13 12 13 13 14 13 13 17 16 16 16 13 13 14 13 15 16 15 12 12 12 11 14 15 15 13 12 12 13 14 17 24 29 28 27 27 26 26 27 26 24 24 25 26 25 24 24 22 23 25 24 23 23 21 20 17 15 15 16 16 15 15 15 14 14 14 14 13 14 13 13 12 12 11 10 9 8 7 6 5 5 4 4 4 3 2 2 1 1 1 1 1 2 2 2
16 14 14 15 15 12 12 14 12 14 13 14 16 16 15 14 15 15 16 15 14 14 12 12 13 14 14 14 15 15 13 12 16 23 28 28 27 27 26 26 27 26 25 26 26 27 26 25 25 23 23 25 25 24 24 23 22 19 18 17 17 17 16 15 15 15 15 14 14 14 14 14 13 13 12 12 11 10 9 7 6 6 7 6 5 5 3 2 1 1 2 2 2 1 2 1 2
18 13 12 13 14 13 13 15 13 12 9 11 12 15 16 16 16 16 16 15 15 15 14 13 14 14 14 15 16 15 13 12 17 21 25 28 27 27 27 26 28 28 27 27 28 28 27 26 26 25 24 25 26 25 25 24 22 20 19 18 18 17 17 17 16 16 15 15 15 15 15 14 14 14 13 13 12 11 10 8 7 7 7 7 6 5 5 4 3 4 3 3 3 1 1 1 2
17 12 11 11 11 12 13 16 17 13 8 9 13 14 15 16 16 14 13 13 14 15 15 14 14 14 14 16 16 14 12 13 17 19 23 27 28 28 27 26 28 29 28 28 28 28 28 27 27 25 25 25 26 26 25 24 22 20 19 18 18 17 17 17 16 15 15 15 16 16 15 15 15 15 14 14 13 12 10 9 9 9 9 8 6 6 6 5 5 5 4 4 3 3 2 1 1
15 12 11 12 11 12 11 13 17 14 8 9 15 14 13 14 14 14 15 15 15 16 16 14 13 14 15 15 15 15 15 15 18 20 22 24 27 29 27 26 28 29 28 29 29 29 29 28 28 27 26 25 25 26 25 23 21 20 18 17 17 16 15 16 16 15 16 16 16 17 16 16 16 15 15 14 14 13 11 10 10 9 9 8 7 6 6 6 6 6 5 4 4 3 4 4 2
16 17 14 13 14 15 13 12 15 15 13 12 14 12 11 13 15 15 15 16 14 14 16 15 13 15 16 15 16 16 17 17 18 21 23 23 25 28 28 27 28 29 29 30 31 30 29 29 30 28 27 26 25 26 25 23 21 21 19 17 17 16 14 16 17 16 17 17 17 17 18 17 17 16 15 15 15 14 13 11 10 8 8 8 8 7 7 7 6 7 7 6 5 3 2 5 4
14 19 19 17 16 18 16 15 15 13 12 13 14 12 10 13 16 15 13 15 16 15 16 17 15 14 17 16 17 18 19 19 19 21 22 23 23 27 28 28 28 29 30 31 31 31 30 30 30 29 27 26 26 26 26 24 22 22 22 20 18 18 17 16 18 18 17 18 18 17 17 17 17 17 16 16 16 15 14 12 11 9 8 8 8 7 7 6 6 7 7 6 6 3 1 2 4
10 15 20 20 19 19 17 17 15 10 9 11 14 12 9 11 16 17 17 17 18 18 18 18 16 14 16 17 18 19 20 19 19 20 21 22 24 25 27 29 30 30 30 31 31 31 30 30 31 31 28 27 26 26 27 25 23 23 23 22 20 19 18 17 17 17 17 17 17 17 17 17 17 17 17 17 17 16 15 13 12 11 9 9 8 8 7 7 7 7 7 6 6 5 2 2 4
10 12 16 20 21 21 18 17 14 10 9 11 14 15 11 10 13 16 19 19 21 20 18 17 15 15 16 17 18 20 20 21 20 20 22 23 24 26 29 31 31 30 30 31 31 32 32 31 32 32 29 28 27 27 28 27 24 24 24 23 21 19 18 17 16 17 16 15 16 16 17 16 17 17 17 17 17 17 16 15 13 12 11 10 9 9 9 8 6 6 7 7 6 6 6 5 5
11 11 13 15 18 21 20 16 12 10 10 10 14 15 11 10 10 12 15 18 21 19 17 15 14 15 16 16 18 20 21 22 21 21 22 23 24 29 32 33 32 31 31 32 32 32 33 32 32 32 30 29 28 28 29 28 25 24 24 23 21 19 18 17 16 16 16 15 16 16 16 16 17 17 17 18 18 18 17 16 15 14 12 11 10 10 9 8 7 7 8 8 8 7 7 6 5
13 13 13 11 11 15 16 15 12 11 12 12 15 16 12 9 9 11 14 16 16 14 14 15 16 16 14 13 16 18 18 18 19 21 21 22 26 31 33 32 32 31 31 31 31 31 32 32 32 33 32 30 29 29 30 29 27 25 24 24 22 20 18 17 16 16 17 16 16 16 16 16 16 17 17 18 18 18 18 17 16 15 14 13 12 10 10 9 9 9 9 9 9 8 7 8 7
14 14 12 8 7 9 10 11 11 11 13 15 18 20 15 11 10 11 13 14 14 12 12 15 17 17 14 13 16 17 17 16 18 20 20 22 26 30 31 31 32 31 30 30 30 31 32 32 32 34 33 31 30 30 30 30 29 26 25 25 24 22 20 19 17 17 18 18 18 17 17 17 16 16 17 17 18 18 18 17 17 16 14 14 13 12 11 10 10 10 10 10 10 9 9 9 9
15 13 10 8 8 8 8 9 10 11 12 14 19 21 19 14 10 10 12 16 18 16 15 17 19 18 17 16 17 17 16 16 17 18 18 20 22 25 28 30 32 31 31 31 31 31 32 33 33 34 34 32 30 31 31 31 30 28 26 25 25 24 22 21 20 19 18 18 18 18 17 17 16 16 16 17 18 18 18 18 17 16 15 15 14 13 12 12 11 11 11 11 11 11 10 10 10
14 11 11 10 8 8 9 9 10 12 11 12 16 18 17 15 11 12 14 15 18 17 15 18 20 21 19 19 19 16 16 17 17 17 17 18 19 21 24 28 31 32 32 33 33 32 32 33 34 35 34 33 32 31 32 32 31 30 28 26 25 25 24 23 22 21 19 19 18 18 18 18 18 17 17 18 18 19 19 19 18 18 17 16 15 15 13 13 12 11 11 12 12 12 12 11 11
14 12 11 10 9 9 10 10 10 11 11 13 16 15 14 13 12 15 19 16 15 16 16 17 20 22 21 19 19 17 17 18 17 17 17 18 19 19 21 27 30 32 34 35 34 33 32 33 35 35 35 34 33 32 33 33 32 31 29 27 25 25 25 25 24 22 21 20 19 19 19 19 19 19 19 19 19 19 19 19 19 18 18 17 17 16 14 14 13 12 12 12 13 13 13 13 13
14 13 11 11 9 9 9 9 10 9 9 13 16 14 11 11 8 12 19 19 16 15 15 17 17 18 20 18 17 17 17 17 16 17 18 19 20 21 22 27 30 32 35 35 35 34 33 33 35 36 35 35 34 33 33 33 33 32 30 28 27 26 25 25 24 23 23 22 21 20 20 20 19 19 19 20 19 19 19 19 19 19 18 18 18 17 16 15 14 14 13 13 14 14 14 14 13
12 12 12 12 11 9 7 7 9 9 8 10 12 10 9 9 7 6 11 16 19 16 14 15 15 15 18 18 16 15 15 16 17 17 19 20 21 21 24 28 30 32 34 35 35 35 34 33 35 36 36 36 35 34 34 33 32 31 30 30 28 27 25 25 25 25 24 23 22 21 21 21 20 19 19 19 20 20 20 20 20 20 19 19 19 19 18 16 15 15 15 15 14 14 15 15 14
10 13 13 12 13 11 7 7 8 8 8 8 9 10 9 8 8 8 8 11 17 19 17 15 15 16 17 17 16 15 15 16 17 17 18 19 20 21 25 28 30 32 34 36 37 37 36 35 35 36 36 36 36 35 34 33 32 31 31 31 30 28 27 27 26 26 25 24 23 22 21 21 21 21 19 19 20 21 22 22 21 21 20 20 20 20 19 18 16 16 15 16 16 15 15 16 15
9 12 14 12 12 11 8 7 7 8 8 7 8 12 11 9 7 9 13 14 14 19 21 19 17 17 17 17 17 17 17 16 18 19 19 19 20 21 24 28 31 33 34 36 37 37 36 35 36 37 36 36 37 36 35 34 33 32 32 32 31 30 29 28 27 26 25 24 24 24 23 22 22 22 21 20 19 21 22 22 22 21 21 21 21 20 20 19 18 17 16 17 17 16 16 17 16
14 10 13 12 11 11 9 8 8 9 8 7 9 11 10 9 8 8 14 17 16 16 18 20 20 19 17 17 19 21 20 17 17 18 17 18 19 21 25 29 33 34 35 35 35 35 34 34 35 37 38 38 38 36 34 33 34 32 32 33 33 32 30 29 28 26 25 26 26 25 24 23 22 21 22 21 20 20 21 22 22 22 22 22 22 21 21 21 20 18 17 17 18 18 18 17 17
18 12 12 12 10 10 10 8 7 8 7 7 9 10 9 9 10 11 11 13 16 16 15 16 18 18 17 16 17 19 19 17 16 17 17 19 21 23 27 31 33 34 34 34 34 35 35 35 35 36 37 37 37 36 34 34 34 33 32 32 33 33 31 30 29 28 27 27 28 26 25 24 23 22 22 22 22 22 22 22 23 22 22 22 23 22 22 22 21 20 19 18 18 19 19 19 19
16 13 12 12 10 8 9 10 8 8 7 6 7 8 6 5 8 10 10 10 12 14 15 14 15 16 17 16 15 16 16 15 15 16 17 19 21 23 28 31 30 30 31 32 34 35 35 34 34 35 36 36 36 36 35 35 35 35 33 33 33 33 33 31 30 29 29 28 27 27 26 24 23 23 23 23 23 24 23 23 23 23 23 23 23 23 23 23 22 21 21 19 19 20 21 20 20
16 14 13 13 12 10 10 10 10 9 8 6 6 6 2 4 3 4 7 9 9 10 12 13 14 15 15 15 16 15 15 15 15 16 17 18 18 20 24 26 27 28 30 32 33 34 35 35 35 35 35 36 37 38 37 36 36 35 35 34 34 34 32 32 31 30 30 29 27 27 27 25 24 24 24 24 24 24 24 24 23 23 23 23 23 24 23 23 23 22 22 21 21 22 22 21 21
Wind_Direction
143 152 160 156 154 157 171 198 216 193 223 262 244 258 169 192 113 120 187 197 168 120 135 124 89 75 83 98 102 91 80 73 57 95 102 128 141 147 149 144 142 138 139 137 140 144 145 145 140 140 137 131 132 130 127 124 124 124 123 127 126 118 115 114 112 110 108 106 104 101 98 96 93 92 91 91 90 89 88 87 86 85 86 85 85 85 83 84 83 84 85 84 86 87 93 100 97
156 159 159 155 158 165 162 188 244 205 219 230 217 223 154 155 141 158 174 201 151 120 121 107 99 100 101 100 98 80 72 73 84 86 103 131 139 144 146 144 142 139 139 139 141 142 144 148 145 145 140 135 135 131 128 127 127 126 127 130 127 119 117 116 114 112 109 107 104 101 98 96 94 91 90 88 86 86 85 85 84 82 82 82 81 82 82 82 82 83 83 82 82 84 90 99 99
165 160 155 151 166 197 125 172 249 248 232 213 164 132 126 146 162 172 158 169 137 119 113 110 103 83 92 95 86 81 81 82 98 102 117 136 139 145 147 143 142 139 138 139 142 141 143 150 150 147 141 138 136 133 130 129 130 130 131 130 126 121 120 118 115 113 110 108 105 102 99 96 94 92 90 88 86 85 83 82 82 80 79 80 80 79 80 79 79 79 82 82 80 82 84 93 98
170 164 160 157 178 217 228 212 257 277 227 120 99 107 119 122 129 136 126 132 122 121 120 113 96 56 67 83 84 87 93 93 108 114 127 140 138 144 145 142 142 138 137 139 142 141 145 154 153 147 142 139 138 135 132 132 133 133 132 129 125 122 121 119 116 115 112 110 106 103 100 97 95 93 92 90 87 85 83 81 78 78 78 79 80 79 78 77 76 76 81 81 81 81 80 87 94
176 170 167 170 198 202 240 262 244 257 230 86 78 99 112 100 106 112 109 121 126 127 118 107 101 90 68 66 81 92 102 105 117 123 125 136 139 142 143 142 142 139 138 138 141 140 146 155 152 147 143 141 140 135 133 134 135 134 132 127 125 125 122 119 118 116 113 110 107 104 101 99 96 94 93 90 88 85 83 82 81 79 78 78 78 78 76 74 74 73 77 79 82 82 79 84 89
186 170 176 192 262 328 259 267 233 220 42 71 89 87 97 100 105 112 115 124 125 120 112 99 95 100 78 64 74 78 110 120 124 129 126 136 141 141 142 143 142 139 139 138 139 139 146 152 149 147 144 142 141 136 136 136 136 135 130 128 128 127 124 121 120 117 115 111 108 106 103 101 97 94 92 91 87 85 82 81 83 80 78 79 78 77 76 73 73 72 74 77 80 82 80 83 86
185 149 194 215 284 276 241 262 257 69 57 63 85 90 93 103 109 115 118 123 123 122 112 92 88 101 92 80 80 74 108 126 126 127 131 138 140 141 144 143 142 139 138 138 136 139 147 148 148 148 145 144 141 138 139 137 137 134 130 131 131 129 126 124 122 119 117 113 111 108 104 102 98 95 92 90 88 84 83 80 79 78 76 76 75 74 74 73 72 72 73 74 77 80 82 81 83
196 170 203 220 249 232 249 262 232 87 82 75 73 84 94 107 115 118 120 123 123 124 111 100 98 98 83 81 91 90 109 120 120 125 134 139 140 144 145 142 142 139 138 139 136 141 147 147 148 148 146 143 140 141 140 139 139 135 133 135 133 131 129 126 124 122 119 117 114 110 106 103 99 96 93 90 88 85 83 80 77 75 74 73 73 73 72 73 72 73 73 74 74 76 80 81 82
219 210 224 232 259 247 239 239 148 94 91 89 85 92 102 113 115 120 120 120 126 130 119 114 110 100 94 91 96 103 109 115 121 128 136 139 143 145 143 142 141 140 139 140 140 141 145 147 148 147 146 143 141 144 141 139 139 136 136 137 135 132 131 130 128 126 123 120 116 113 109 105 102 98 95 91 89 86 82 79 78 74 74 72 72 71 71 72 71 72 71 72 74 75 78 79 81
234 227 257 257 280 277 214 154 99 104 101 95 100 105 108 112 118 120 110 114 125 128 120 113 106 108 112 103 99 105 114 124 127 131 138 141 145 145 144 143 141 141 138 139 142 140 143 146 147 147 146 144 144 145 142 139 139 139 140 139 137 135 136 135 133 130 127 123 119 116 112 109 106 101 97 94 90 87 84 80 77 74 71 71 71 71 70 71 71 71 71 71 73 74 76 79 81
247 236 262 285 293 285 134 89 96 111 104 99 102 105 106 110 120 112 103 111 116 126 121 107 106 114 112 103 99 110 122 135 135 136 143 144 146 145 144 144 143 141 137 140 141 139 142 145 146 147 146 145 146 145 142 141 142 143 143 141 140 140 141 140 138 134 131 126 122 119 117 113 108 105 101 97 94 89 86 80 76 73 71 71 71 71 68 69 71 72 71 71 73 73 74 77 79
249 246 245 292 279 278 354 81 100 102 110 110 104 102 101 105 111 104 109 115 115 125 112 107 133 124 114 107 108 126 133 142 141 141 146 146 147 147 145 144 144 141 139 139 139 140 142 145 148 148 147 147 146 145 143 145 147 147 146 144 144 145 145 145 143 139 136 130 126 124 122 118 112 110 106 102 98 92 86 80 76 72 70 68 70 72 68 67 70 73 72 72 74 75 74 74 78
247 254 271 269 256 256 270 96 95 101 113 102 102 108 107 103 94 93 104 111 120 125 112 136 156 119 111 111 117 136 141 145 144 144 149 150 148 147 146 145 144 142 142 139 139 142 143 147 148 149 149 147 147 146 146 148 149 149 149 149 149 150 150 150 147 145 141 134 132 131 127 125 121 117 113 111 103 96 88 82 79 73 69 66 67 69 69 69 70 73 74 75 75 74 73 77 82
251 255 270 266 265 267 297 97 103 116 106 96 110 118 121 104 92 98 109 109 104 104 112 142 142 115 120 121 131 150 145 147 147 146 151 152 149 148 149 148 144 142 143 142 142 145 146 148 149 150 149 147 147 147 149 151 151 152 152 153 155 156 156 155 153 149 144 141 138 135 135 131 129 125 122 118 109 103 90 81 80 75 70 66 68 70 72 72 73 76 76 77 74 72 74 79 87
252 270 268 272 303 312 328 88 113 110 102 107 118 125 124 99 105 118 107 103 90 93 110 132 138 132 144 144 154 155 147 150 149 148 152 152 151 149 149 149 146 145 145 144 146 149 150 151 151 151 150 150 150 150 153 155 156 156 156 158 160 162 161 160 158 154 149 147 144 142 142 137 135 134 132 126 118 110 94 85 79 76 71 70 76 76 73 68 68 76 74 73 72 72 73 77 85
250 280 278 267 303 310 292 294 103 94 101 108 115 132 123 101 113 102 84 97 103 116 132 133 139 139 149 154 155 150 148 150 151 151 152 151 151 149 151 151 147 149 147 145 149 152 153 154 154 153 154 155 154 155 156 158 161 160 161 163 165 166 166 165 162 161 157 154 153 149 143 138 136 139 138 133 125 116 114 114 96 78 75 74 76 74 69 65 66 76 82 78 76 80 79 79 81
254 269 268 252 329 0 305 342 77 118 114 110 120 131 119 112 108 86 95 116 117 134 136 123 119 100 136 143 146 149 148 151 154 154 153 153 152 152 155 154 151 152 151 150 153 154 156 156 156 156 158 159 159 160 159 160 165 165 166 167 169 170 169 169 166 166 165 162 164 153 144 144 154 167 150 143 145 125 136 136 103 73 73 68 67 72 66 65 65 72 88 86 84 92 94 91 87
249 255 260 244 62 300 255 228 169 164 120 116 135 130 118 121 111 110 144 128 122 138 125 119 107 76 103 128 142 147 149 154 157 156 155 157 157 158 159 157 157 157 157 155 155 156 157 158 158 159 161 163 163 163 162 164 167 168 170 170 171 174 174 174 171 172 172 173 176 163 158 159 165 178 154 156 173 152 190 168 86 47 62 62 64 67 60 65 66 70 84 89 90 98 104 107 106
239 252 262 228 128 227 234 199 159 102 108 133 143 146 134 128 124 146 172 131 132 145 132 134 119 103 112 129 142 145 152 158 160 161 159 161 162 163 162 161 162 161 162 158 154 157 159 162 163 162 163 165 167 166 166 168 170 170 173 174 174 178 179 179 180 181 182 184 184 179 180 172 163 171 166 180 188 166 199 350 57 51 63 65 72 66 59 67 66 70 78 84 87 98 113 117 133
232 246 270 283 181 221 234 135 53 57 94 180 142 156 151 129 141 159 171 136 144 154 140 148 136 128 132 138 145 149 156 161 162 164 164 167 166 166 165 163 166 165 166 163 159 162 164 164 165 167 166 166 168 168 170 170 172 175 176 179 178 182 184 185 189 188 189 191 190 190 190 180 171 174 176 182 184 181 200 57 62 80 80 71 78 63 71 85 76 76 74 82 80 97 151 179 133
230 238 254 261 207 225 285 68 69 57 294 262 127 150 156 154 166 151 172 156 154 165 149 153 145 139 143 146 151 153 159 163 166 167 167 172 170 169 169 165 168 167 167 165 164 167 168 166 166 169 169 169 171 170 173 173 174 178 181 183 183 185 188 190 192 191 194 195 193 195 191 186 184 178 176 182 184 186 192 157 111 106 96 68 81 2 62 100 198 94 73 64 62 63 112 349 97
241 247 251 260 235 99 290 301 81 23 298 146 142 162 151 155 172 154 196 195 125 153 151 149 147 146 150 153 155 157 162 165 167 169 171 174 174 173 170 167 169 168 170 169 167 168 168 170 169 171 171 172 177 177 176 174 177 182 183 184 186 188 190 192 193 193 196 196 196 198 192 188 193 184 175 185 188 180 197 196 132 122 229 85 129 327 49 44 277 102 63 29 37 47 25 3 23
239 247 242 262 268 111 310 302 127 209 308 138 149 154 133 151 181 169 192 214 72 107 137 141 145 149 155 157 159 164 166 168 170 172 175 176 176 176 172 171 171 170 173 173 171 170 170 172 172 173 174 175 179 180 176 176 180 185 184 185 187 189 190 191 194 195 195 196 199 201 198 191 194 192 180 185 191 186 194 196 144 144 245 110 139 172 79 177 263 72 70 37 10 20 9 350 341
234 254 243 245 252 151 182 259 213 199 264 270 262 147 169 185 194 162 172 195 138 106 125 135 140 149 158 159 164 169 168 171 174 173 175 179 177 176 176 175 174 173 174 174 173 173 174 174 173 174 176 178 180 179 178 181 182 184 185 185 189 190 190 192 194 193 191 195 199 201 203 201 197 191 184 189 195 193 191 187 174 188 236 237 147 142 49 145 157 49 55 56 3 348 336 337 338
226 247 257 249 249 187 191 224 229 232 234 236 242 230 215 205 214 191 175 184 162 132 136 137 141 152 160 165 168 171 170 174 177 174 176 180 178 177 177 177 175 175 176 176 174 175 177 175 174 176 177 179 183 183 184 186 185 186 184 184 190 189 191 195 192 191 190 194 198 199 201 206 204 192 187 192 193 193 187 196 207 205 212 241 214 191 27 289 233 253 308 339 354 327 330 341 340
226 236 249 250 245 224 216 217 220 238 236 227 227 227 231 210 216 226 187 178 161 149 152 143 147 158 161 168 171 171 173 177 180 176 177 180 179 179 179 179 177 177 179 178 175 176 177 177 178 179 179 180 183 186 187 187 186 187 184 184 189 189 194 195 190 193 192 194 195 193 199 207 212 199 190 192 190 191 190 205 218 208 205 220 236 239 263 263 277 332 325 325 340 328 334 343 344
229 237 242 246 248 238 233 222 216 229 231 232 233 228 230 210 207 219 184 177 162 155 162 152 155 161 164 170 172 174 176 179 181 178 179 181 180 181 181 181 179 178 180 180 179 178 177 178 180 181 181 180 183 187 189 188 187 187 185 185 190 190 195 193 192 197 194 195 193 189 195 202 212 209 189 187 189 194 195 206 214 208 198 204 234 253 264 278 314 355 341 322 330 329 331 349 346
234 243 241 239 246 246 242 237 227 229 231 229 232 235 236 216 211 215 176 168 164 166 167 160 164 164 164 171 171 174 179 179 181 181 182 183 182 183 183 182 182 179 180 183 180 178 179 180 181 182 182 181 184 188 189 189 187 188 187 187 192 191 193 194 196 199 197 196 189 185 192 195 206 215 184 182 192 197 197 205 207 206 199 193 247 280 306 297 315 324 323 318 315 327 333 358 338
239 246 249 239 237 239 234 234 229 226 230 224 225 235 237 225 217 207 169 161 167 174 171 166 170 167 165 169 171 175 180 181 182 185 185 183 183 184 184 183 183 181 180 183 181 179 182 181 181 182 182 182 185 189 188 189 188 188 190 190 192 191 193 198 199 200 199 195 187 186 191 191 199 209 201 195 203 201 200 209 200 206 218 213 249 279 283 268 294 301 288 308 315 335 345 0 323
233 238 244 245 238 234 225 223 222 220 222 219 222 230 225 218 207 193 166 161 172 176 174 176 173 169 169 168 172 176 178 182 184 185 186 183 184 185 186 186 185 183 181 182 182 182 182 182 182 182 183 183 185 189 189 189 190 189 191 192 191 191 194 198 199 200 199 195 193 191 192 191 195 200 201 203 209 206 204 208 208 215 215 216 238 240 259 266 302 301 293 315 327 347 353 4 336
223 231 233 240 241 234 216 208 211 214 213 212 218 233 234 210 181 179 169 165 181 182 174 184 182 171 172 172 173 178 179 184 186 185 185 183 184 186 186 186 186 184 181 181 183 183 182 182 182 182 183 184 185 189 190 189 191 190 190 191 192 193 196 199 200 199 198 198 197 194 193 193 194 198 201 205 209 212 211 205 212 216 191 210 239 226 258 287 286 286 313 318 337 358 337 15 357
215 224 225 225 233 241 217 200 202 209 207 204 213 230 239 209 164 164 168 171 184 191 180 182 189 176 173 179 175 177 180 183 186 185 185 184 184 185 185 185 186 185 182 181 182 183 183 183 183 182 182 185 187 188 190 190 191 192 193 192 192 194 198 201 202 201 199 199 200 196 194 194 194 197 200 205 209 214 217 211 208 199 188 222 239 235 267 283 273 271 354 335 15 358 306 8 0
210 220 228 220 218 234 225 195 194 206 207 201 210 231 232 194 162 148 151 184 187 196 193 179 189 184 172 181 180 179 180 181 187 187 184 184 184 184 185 185 186 186 183 181 182 183 183 183 184 184 182 184 187 188 191 191 190 193 193 193 193 195 200 202 202 204 202 200 200 197 193 193 195 196 199 204 210 215 216 218 211 192 204 235 234 257 270 267 276 271 53 11 40 314 316 16 7
207 211 226 229 219 222 222 193 185 201 212 204 204 222 229 179 153 144 156 201 198 200 203 182 183 181 163 177 191 189 186 181 185 187 185 183 183 183 184 185 185 185 184 182 183 183 183 183 184 186 182 182 185 187 190 191 191 192 191 193 195 198 203 204 203 204 205 201 199 198 192 190 193 196 199 202 209 218 219 222 217 194 205 227 235 255 265 263 285 305 122 60 40 318 350 21 6
208 207 216 229 225 219 218 207 186 193 208 214 210 212 222 196 158 159 181 203 206 209 211 188 180 172 160 175 192 197 200 190 185 185 185 183 181 181 182 183 184 185 184 183 183 182 184 183 184 187 182 181 184 186 190 190 191 193 189 192 196 200 204 205 206 205 206 204 198 195 191 190 194 195 198 201 208 217 222 223 214 203 210 224 242 246 256 257 247 277 227 128 125 0 25 36 25
215 212 215 221 228 224 218 220 195 186 203 214 219 221 222 215 190 179 189 199 207 211 211 196 184 171 163 176 185 191 204 204 192 184 182 182 182 180 180 181 183 185 183 182 182 181 184 183 183 187 184 182 183 184 189 190 191 192 190 193 196 200 204 205 208 207 207 206 200 194 191 192 193 194 197 201 208 214 221 223 209 209 218 219 237 247 251 246 210 194 180 133 144 137 72 51 45
230 222 221 218 227 226 214 222 197 178 209 216 215 227 224 220 214 196 188 196 205 208 206 201 192 173 165 184 192 187 191 208 203 188 182 182 182 179 178 178 180 183 183 182 182 182 184 185 182 185 184 182 183 185 188 190 191 191 190 195 197 199 203 204 206 209 208 204 200 196 195 195 193 192 197 199 206 212 215 218 208 209 220 215 222 241 248 249 223 197 182 146 160 153 104 106 82
236 232 231 222 224 226 211 217 205 173 202 225 216 230 228 219 222 211 191 189 201 209 207 201 197 181 171 187 198 190 180 199 205 190 182 182 181 180 177 177 179 180 182 182 183 183 184 187 184 184 184 183 185 186 188 191 192 192 191 195 199 198 201 204 205 207 207 202 200 198 196 195 195 193 195 198 204 208 207 209 205 205 218 215 208 225 232 234 231 212 193 161 157 150 89 86 93
233 231 236 232 220 226 218 214 220 197 183 230 229 234 236 225 228 229 210 196 195 208 213 205 196 184 177 183 191 191 185 198 205 191 183 182 181 180 177 178 180 179 181 182 183 183 185 188 188 186 185 185 186 186 189 192 192 192 192 195 199 199 199 203 206 205 203 202 200 198 196 195 194 193 194 198 202 205 202 205 207 204 211 213 207 220 222 215 219 214 201 176 163 156 147 131 185
229 225 225 233 219 220 223 213 224 217 188 232 241 237 240 233 232 231 228 222 203 198 209 213 201 184 184 186 181 185 192 202 207 194 183 181 182 182 179 178 180 179 180 181 182 184 185 189 190 188 188 188 187 187 188 191 192 191 193 196 200 203 202 200 205 206 203 204 201 196 197 196 193 194 196 198 203 205 201 204 212 209 206 206 204 214 217 210 209 212 203 181 183 191 165 154 175
224 226 223 229 224 222 228 220 223 219 202 221 241 243 238 233 233 227 226 234 221 198 199 212 210 184 179 184 177 184 199 204 207 198 183 180 182 181 180 180 180 180 181 181 182 184 185 188 189 189 190 191 190 188 187 188 189 189 193 196 199 206 208 200 202 205 202 204 203 197 197 197 195 196 198 199 203 205 202 202 209 209 202 201 204 209 216 214 207 207 202 181 190 234 196 149 155
220 225 227 232 233 230 233 233 233 227 211 214 226 241 240 228 235 235 227 229 222 204 197 207 213 191 176 179 180 187 200 203 205 201 185 178 180 179 179 182 182 182 182 182 183 183 184 186 188 188 189 193 192 189 186 186 187 188 191 194 196 201 206 202 201 203 201 201 205 202 199 199 198 198 200 201 203 204 204 203 204 207 203 200 206 211 214 214 209 205 196 179 183 215 282 154 166
223 217 221 229 238 240 236 236 238 233 227 219 215 227 242 231 228 229 228 230 224 208 198 204 210 203 187 181 184 186 193 198 202 203 190 180 178 178 180 183 185 185 182 182 182 183 184 184 186 188 189 192 193 190 186 185 187 189 192 195 197 199 202 203 201 202 202 200 204 205 201 199 200 200 201 202 204 204 205 205 204 208 207 202 203 206 211 214 211 202 189 182 177 172 183 230 198
228 213 212 218 228 237 237 238 238 234 241 239 227 227 237 238 229 226 222 226 230 213 194 200 207 209 201 190 188 186 189 193 194 197 194 184 180 180 182 184 186 186 181 180 181 181 183 183 184 187 189 191 192 190 187 186 187 189 193 197 199 202 203 202 200 200 203 202 204 207 203 200 199 202 203 203 204 205 205 205 205 207 208 208 205 205 213 215 208 196 186 182 173 164 174 211 226
229 221 219 214 219 227 231 237 240 237 241 243 238 235 238 239 234 239 233 227 228 207 182 194 209 212 210 201 193 188 189 192 189 193 193 185 183 183 183 183 184 185 182 181 181 181 181 182 184 186 188 191 192 190 187 188 190 190 194 197 200 202 204 204 201 200 202 203 203 205 204 201 198 201 203 203 204 205 205 205 206 208 209 211 211 212 215 211 204 198 189 182 176 172 179 200 221
223 224 225 219 218 223 224 230 235 236 240 238 233 232 240 244 226 229 239 236 227 201 182 197 209 213 211 210 207 192 186 189 187 193 193 187 188 186 183 182 183 185 184 182 181 179 180 181 183 185 188 190 191 190 188 189 192 193 196 199 200 201 201 203 204 201 201 201 202 202 202 201 200 201 204 205 205 205 205 205 206 209 210 211 212 215 215 209 205 203 198 192 185 182 185 200 211
214 220 220 211 217 224 222 226 230 234 237 235 232 232 238 245 231 220 226 229 223 209 200 201 202 206 199 207 221 201 185 189 188 190 192 190 190 187 184 183 183 184 183 181 181 180 179 181 182 185 187 189 190 189 188 189 193 196 199 201 201 201 201 202 203 201 199 199 202 201 201 201 202 204 205 206 207 207 207 206 208 211 212 212 211 212 214 210 208 206 202 198 191 190 188 198 212
209 214 207 198 207 213 218 218 220 232 235 229 229 232 238 242 233 225 227 224 220 214 205 196 195 200 194 198 216 206 187 188 190 189 190 189 189 187 186 185 183 183 182 182 184 182 180 181 182 184 186 188 188 188 189 191 193 197 200 202 202 202 201 202 202 203 200 199 201 201 200 202 204 206 206 206 209 210 208 207 209 211 211 211 211 211 212 210 209 207 202 198 194 195 194 197 210
204 208 202 200 199 196 209 209 210 228 234 229 226 224 233 244 238 233 237 229 221 218 209 198 195 197 194 195 207 206 190 185 189 190 188 187 189 189 188 185 183 184 183 183 184 183 182 182 182 183 186 187 187 187 190 191 194 197 200 202 203 203 203 204 204 204 203 202 202 201 201 202 203 206 207 208 210 209 207 207 208 208 209 209 209 209 210 208 209 206 201 200 198 196 197 199 208
199 203 199 200 199 194 203 208 213 227 227 223 225 222 229 242 236 227 233 235 229 221 210 204 204 196 188 191 201 202 191 184 187 190 188 188 188 190 189 186 185 186 185 184 185 184 183 182 182 183 185 186 186 187 189 191 194 197 200 202 203 203 204 205 205 206 207 205 205 204 204 205 205 208 209 210 211 208 207 208 207 207 207 206 205 206 207 205 204 204 202 202 201 198 199 202 208
199 203 204 206 212 208 205 209 213 223 225 214 215 223 229 234 237 224 224 226 226 228 214 204 210 197 178 182 201 204 194 186 185 188 190 190 188 188 190 188 187 187 186 185 185 185 184 183 183 183 184 185 186 187 188 191 194 196 199 201 203 204 204 205 206 208 209 209 209 209 208 209 210 211 212 212 211 209 207 207 206 207 206 205 204 203 204 204 201 200 201 203 204 201 201 204 208
194 199 208 211 215 221 223 224 224 226 233 216 204 217 230 230 239 229 223 220 213 219 218 199 202 199 176 175 193 205 201 190 185 188 190 191 188 187 190 190 189 188 187 186 185 185 185 184 183 183 183 184 185 187 188 191 193 195 197 200 202 203 203 204 206 208 209 210 211 212 212 212 213 214 214 213 210 208 207 205 204 205 206 205 204 202 202 203 202 200 199 202 205 203 202 205 208
185 197 211 210 211 228 238 236 240 239 237 226 205 210 217 222 222 200 205 223 209 206 211 201 197 198 183 172 183 202 208 195 186 188 189 188 188 188 190 191 190 189 189 189 187 186 186 184 183 183 183 184 185 187 188 190 192 194 197 199 200 202 203 204 206 207 209 210 211 213 214 213 214 214 214 213 210 208 206 205 204 204 204 204 205 203 202 202 201 202 201 201 204 204 203 205 208
195 197 203 204 211 228 241 238 232 228 231 232 218 213 208 210 220 200 197 211 210 204 206 202 195 194 188 178 182 197 207 201 190 187 187 187 187 188 191 193 192 192 191 191 189 187 186 185 184 183 184 185 187 188 188 188 190 193 196 198 199 201 204 205 207 207 207 209 211 212 213 213 213 213 214 214 211 208 206 204 204 203 202 203 205 205 204 203 201 201 202 203 204 203 202 205 207
220 208 193 197 210 211 215 228 227 222 224 226 226 226 219 212 215 212 202 202 207 205 202 202 199 197 199 193 187 192 201 200 193 188 185 186 188 189 191 193 194 193 192 192 190 188 187 187 186 186 186 186 187 188 189 188 189 192 195 198 199 200 203 205 206 206 205 208 211 211 212 213 213 212 212 212 211 209 207 205 203 203 203 202 202 203 204 203 201 201 203 205 206 203 202 205 206
220 220 199 201 217 210 204 216 226 229 228 222 223 224 226 224 216 215 206 194 201 203 198 204 204 196 197 198 191 190 196 197 193 189 185 185 190 192 192 194 195 193 192 191 189 189 190 189 188 189 188 188 188 188 188 188 191 194 195 197 198 200 202 203 204 204 204 208 210 211 212 213 212 212 211 210 210 209 209 206 204 204 204 203 202 202 203 202 202 202 203 205 206 204 203 204 207
205 213 204 199 208 212 211 213 216 227 234 226 228 226 216 209 206 209 201 182 193 203 198 202 209 201 192 191 192 189 192 196 194 190 187 188 191 193 193 194 194 192 191 191 191 191 192 191 191 191 190 189 189 189 188 189 192 194 195 195 198 199 201 201 202 202 204 207 209 210 212 212 212 211 210 210 209 209 209 207 206 205 205 204 203 202 202 201 202 203 203 206 205 202 203 205 206
196 205 207 200 199 204 209 211 206 216 234 233 240 248 210 99 112 188 197 183 181 199 204 198 203 210 201 190 191 188 188 195 196 193 192 192 193 193 192 191 191 191 191 193 194 193 193 193 192 192 191 191 191 190 190 190 191 194 195 195 197 199 199 200 201 202 204 206 207 209 210 210 211 211 210 210 209 209 208 207 207 206 204 204 202 202 202 201 203 203 203 206 206 203 203 205 207